Theta_e
330 331 331 332 333 333 331 330 330 329 329 330 330 329 329 329 328 322 319 318 324 329 330 331 330 330 331 330 330 330 329 329 328 329 329 330 329 329 328 327 328 329 329
332 331 332 333 333 334 331 331 330 327 328 327 327 324 322 319 318 317 317 319 322 326 329 327 326 327 328 327 326 326 325 325 325 325 324 325 326 326 327 326 325 325 326
333 333 332 332 332 332 330 326 323 322 320 320 317 316 315 316 316 316 318 318 319 320 325 324 324 325 324 322 322 323 323 323 323 322 321 321 322 322 322 323 324 324 324
331 332 330 324 323 324 321 318 317 315 314 313 311 311 313 314 315 316 317 316 316 316 319 322 321 321 318 319 319 320 320 321 319 318 317 318 318 318 318 320 321 321 321
324 322 320 319 319 318 315 313 313 312 312 310 310 308 308 310 314 318 313 307 311 313 310 315 314 313 315 314 315 317 319 317 317 315 315 315 315 315 315 315 316 317 319
319 318 316 315 315 312 310 309 308 310 310 308 308 308 305 309 312 305 304 309 310 306 305 302 303 304 312 310 313 316 315 315 313 312 312 312 311 311 312 313 314 315 315
312 312 310 308 309 307 306 305 305 304 305 304 302 303 306 305 303 301 303 303 301 303 301 301 300 301 301 308 312 313 313 312 310 307 307 308 308 309 310 311 312 313 313
306 306 305 305 304 303 302 301 301 301 302 302 300 302 297 298 301 300 300 299 298 298 298 299 298 297 298 300 307 308 307 307 306 305 306 306 307 308 308 309 310 311 312
303 303 302 301 301 300 299 299 299 298 297 299 299 297 293 292 295 298 299 296 295 295 295 297 296 297 300 302 301 298 300 301 302 303 303 304 305 306 306 307 308 309 310
299 300 299 298 298 298 297 297 297 296 296 294 296 297 296 294 291 290 295 294 294 294 293 293 293 297 300 296 296 295 295 297 298 298 300 301 301 303 304 305 306 307 307
297 297 298 296 296 296 295 295 294 293 294 292 292 292 292 291 291 288 286 288 290 291 291 291 294 297 293 292 291 291 293 294 295 295 296 297 299 301 302 303 304 305 305
294 295 296 294 293 293 293 293 293 292 292 290 290 289 290 288 287 286 285 285 285 287 289 291 292 290 289 289 289 291 292 293 293 294 294 295 297 297 299 300 301 302 302
292 293 292 291 291 292 293 293 291 290 289 288 287 287 288 288 288 287 285 283 283 285 287 287 289 287 287 287 287 290 290 291 292 292 293 293 294 295 296 297 299 299 300
291 292 292 291 291 291 291 289 289 288 287 287 285 286 286 286 287 286 285 283 280 282 283 283 285 286 286 285 287 289 286 288 290 291 291 292 292 293 293 295 296 296 297
291 290 290 289 289 289 290 288 286 286 286 286 285 285 284 285 286 285 284 284 281 277 278 281 281 284 284 284 285 285 284 286 288 288 289 289 290 291 292 293 293 294 296
289 288 288 287 287 287 287 286 285 285 285 285 285 284 284 283 283 283 283 283 282 280 276 280 280 282 282 283 284 282 282 285 285 286 286 287 288 289 289 291 292 293 293
287 286 286 286 286 286 286 285 284 284 284 283 283 282 281 282 281 281 281 281 280 280 276 278 280 280 279 279 280 280 280 280 280 283 284 285 286 286 289 289 290 290 291
285 285 285 286 286 285 285 284 283 283 282 281 281 280 280 281 279 279 279 278 279 279 277 275 277 277 277 277 277 277 278 279 277 280 283 283 284 284 285 286 286 286 287
284 283 284 284 284 284 284 284 283 282 282 281 281 279 279 279 277 277 277 277 278 278 277 275 274 276 276 276 275 276 276 275 277 279 281 281 282 282 283 284 284 285 286
282 282 282 283 283 284 284 283 283 281 280 280 281 280 279 277 277 276 277 277 277 276 275 274 274 273 274 274 274 273 271 274 273 276 278 278 279 280 281 282 283 283 285
281 281 281 281 281 282 283 282 281 280 279 279 279 279 279 279 280 279 278 276 276 274 274 273 272 272 271 272 271 271 271 272 273 274 273 273 274 275 276 279 280 282 283
279 279 279 279 278 282 283 283 282 280 279 279 278 278 278 279 278 279 279 279 278 274 273 272 271 270 271 271 271 271 271 269 267 273 270 270 273 272 274 275 278 281 283
278 278 277 278 277 278 281 282 282 279 279 278 278 278 277 278 277 276 277 277 276 277 276 273 271 271 270 271 271 271 270 270 268 270 270 267 271 270 272 273 278 281 281
277 277 277 277 277 278 279 280 281 279 278 278 277 277 276 276 276 277 275 274 273 273 273 274 273 272 272 273 272 272 271 269 269 270 271 265 270 268 270 271 277 279 278
276 276 277 277 276 277 278 279 280 278 278 277 278 277 277 276 277 278 274 272 272 271 274 275 274 274 274 274 274 270 266 265 264 266 270 268 268 268 268 269 272 275 276
277 277 277 276 277 276 278 278 279 278 277 277 277 277 278 277 277 277 273 271 268 269 270 268 268 269 270 270 271 269 267 264 264 263 268 266 267 267 263 268 268 269 269
Wind_Speed
1 2 2 2 2 3 4 4 4 4 5 5 5 6 6 6 6 3 3 8 6 8 10 14 16 17 16 16 17 18 18 19 18 18 19 19 19 19 20 20 20 21 21
1 2 3 4 4 4 4 4 4 4 4 4 5 6 6 5 6 5 4 5 6 6 9 13 15 16 16 18 18 19 19 19 19 18 19 20 20 21 20 20 21 21 22
4 3 3 4 3 3 5 5 5 5 5 5 6 6 5 6 5 5 4 4 5 6 7 11 16 14 17 19 19 19 19 20 20 20 20 21 21 22 22 23 23 22 22
6 5 4 5 5 5 5 5 4 5 5 5 5 5 5 4 5 2 3 3 3 4 4 13 17 13 19 19 19 19 20 20 21 21 20 21 21 22 22 23 22 23 23
7 6 5 5 6 5 5 5 4 4 4 5 6 5 5 5 3 4 7 7 6 7 4 10 13 12 16 19 19 19 20 20 21 22 22 23 24 24 24 24 25 25 25
8 6 5 6 5 5 6 6 5 5 3 4 6 6 6 4 4 5 6 6 7 8 8 7 5 6 14 19 17 17 20 22 23 24 24 25 25 26 25 26 26 26 26
8 8 6 7 6 7 6 7 5 6 5 6 4 4 5 3 6 8 5 5 9 7 9 7 4 4 5 15 16 19 22 24 27 29 29 27 27 27 27 27 27 28 27
9 9 7 6 7 5 7 6 6 4 4 6 3 3 5 6 6 7 5 7 7 6 9 7 7 8 5 5 13 20 24 28 30 30 28 28 28 27 28 29 28 28 29
8 8 8 7 6 5 5 5 6 7 4 4 7 4 4 3 6 3 5 7 7 6 6 6 10 6 6 8 9 15 28 29 29 28 29 29 29 30 30 29 29 29 29
8 8 8 7 6 4 6 5 6 4 4 5 4 7 4 3 3 5 5 6 11 11 10 8 7 6 10 8 12 19 28 29 29 30 30 29 30 29 30 31 30 30 30
7 7 7 7 7 6 6 7 6 7 4 4 3 3 3 4 6 3 4 7 7 9 7 7 6 9 12 11 10 18 33 34 32 33 32 33 32 31 31 32 32 32 32
5 8 8 6 6 6 6 5 6 7 6 5 5 5 4 4 5 3 3 7 7 7 8 4 8 8 9 10 16 23 27 28 30 31 32 32 32 33 33 33 33 32 33
4 5 6 7 5 5 5 6 6 7 6 5 7 5 4 5 4 4 4 6 5 4 4 4 5 7 10 10 11 20 23 28 30 31 32 31 31 32 33 34 34 35 34
4 6 5 6 6 6 6 6 5 4 5 4 7 6 4 4 3 4 4 6 5 2 4 4 5 9 8 10 14 21 12 25 30 30 31 31 34 32 33 34 34 35 35
6 5 6 6 5 5 6 6 4 4 5 5 5 5 4 3 3 3 3 2 4 6 7 3 8 9 10 10 13 13 14 23 28 30 30 33 34 34 35 35 35 35 33
5 5 5 6 5 5 6 5 4 5 5 4 4 5 4 3 4 3 3 3 3 5 6 8 9 12 12 11 14 13 15 22 26 29 32 33 35 36 37 35 34 33 33
4 5 5 5 5 6 5 5 5 5 5 5 5 4 5 5 4 5 5 3 4 5 9 9 10 12 15 14 13 13 14 14 13 29 32 35 36 36 35 36 36 36 34
4 5 4 5 4 4 4 5 4 4 4 5 5 5 5 6 6 6 5 6 6 7 9 15 12 11 13 13 15 16 12 12 14 22 34 34 33 34 34 36 38 38 37
5 5 4 4 3 3 4 4 4 4 4 4 4 5 5 6 5 5 6 6 6 7 8 9 12 10 11 12 14 12 13 15 12 26 28 27 30 36 35 36 36 35 36
5 4 3 3 2 4 4 4 4 4 5 4 4 4 5 4 4 5 6 6 8 9 9 8 10 10 11 12 11 14 15 11 14 15 18 21 32 31 32 35 36 34 32
4 3 3 2 2 3 3 4 4 4 3 3 4 3 3 3 7 9 6 7 10 8 8 9 10 10 11 12 14 13 15 15 13 9 14 13 14 14 15 23 25 33 38
4 4 3 3 2 3 4 5 4 3 3 2 2 3 3 3 7 12 14 19 15 11 11 10 9 12 14 13 12 13 14 15 14 8 18 14 13 12 13 13 34 36 34
4 5 4 4 4 4 2 3 4 2 2 2 2 3 3 3 5 4 12 15 13 17 17 12 12 13 15 15 15 15 15 14 14 13 14 17 14 13 13 17 32 34 36
4 4 4 3 3 3 1 2 3 3 3 2 3 3 3 4 4 8 10 9 10 9 10 9 10 12 13 13 13 13 14 15 13 12 11 14 13 14 15 16 29 31 37
4 4 4 4 4 4 3 2 2 3 2 3 3 3 2 2 9 17 10 10 9 9 11 18 21 21 23 22 19 10 10 12 14 13 11 11 13 14 15 13 14 32 33
4 3 4 4 4 4 5 3 2 1 3 1 3 4 5 7 13 17 10 7 7 10 9 11 10 12 14 13 19 11 10 11 12 14 9 14 13 12 11 10 15 13 16
Wind_Direction
282 307 327 287 333 341 25 348 338 348 344 329 327 317 321 321 325 360 14 30 53 45 28 23 15 11 11 6 5 3 360 358 355 358 356 355 353 346 344 337 333 332 328
301 350 341 12 9 9 354 348 351 313 298 311 313 339 348 353 358 7 11 4 40 62 44 32 22 11 11 5 0 357 355 353 350 353 351 351 348 347 342 336 328 326 323
357 346 38 37 15 8 5 17 350 2 359 345 359 351 341 331 344 27 21 18 29 51 64 27 24 17 6 358 358 358 1 357 0 357 350 346 344 342 340 333 331 329 323
11 51 48 29 3 21 35 7 1 7 354 4 344 316 325 334 342 49 52 13 34 41 42 25 19 21 359 359 358 2 360 8 4 358 354 353 347 344 339 333 331 323 320
19 57 46 22 20 28 32 10 358 14 8 348 334 320 334 318 350 35 28 3 32 47 34 26 13 4 0 359 358 1 12 6 9 3 356 353 349 344 338 334 329 326 325
28 51 45 31 40 37 27 14 4 349 13 1 329 320 306 302 42 46 18 19 37 25 35 13 13 345 3 0 2 13 11 12 7 359 352 347 342 338 334 331 328 325 321
38 35 44 35 28 50 31 20 353 1 4 0 355 330 316 340 66 25 24 28 10 24 22 360 352 10 346 355 15 27 15 7 358 349 341 338 338 334 332 329 326 323 322
35 48 42 41 34 45 35 25 17 355 341 23 355 309 350 333 5 2 24 27 26 10 3 344 16 355 346 359 44 28 11 359 352 346 344 340 335 335 334 329 326 323 320
46 41 44 40 40 44 37 23 24 28 358 355 28 51 353 325 339 330 1 25 14 4 348 357 351 338 20 34 50 19 2 351 349 348 344 340 339 335 330 327 325 323 319
52 46 43 40 39 31 42 20 33 20 20 21 359 4 3 12 338 320 348 350 3 348 338 349 330 359 42 30 19 3 350 352 348 345 342 342 337 333 332 330 326 324 321
46 48 43 40 35 33 26 33 37 25 17 44 17 346 349 324 59 318 301 339 331 322 343 326 339 38 26 20 0 352 354 346 343 341 339 339 335 335 333 331 328 326 323
51 37 43 40 39 38 28 29 32 35 23 37 21 19 31 13 1 356 311 326 320 318 313 355 48 30 19 7 355 348 338 335 335 334 335 333 331 332 330 328 326 325 322
67 49 51 42 27 29 42 47 33 41 23 40 32 23 21 34 8 351 320 325 322 296 349 341 49 26 7 357 341 335 332 331 330 332 328 328 327 326 325 324 323 321 320
67 49 55 58 48 32 47 47 33 39 36 43 37 34 31 22 4 8 353 336 323 292 12 332 344 9 356 335 324 327 326 327 327 327 327 326 327 324 321 321 321 318 317
69 59 54 64 48 47 45 60 53 35 45 35 35 37 37 4 13 3 1 348 355 324 322 342 342 343 330 325 328 332 326 324 328 326 331 327 325 322 319 316 317 314 311
63 71 66 61 56 51 49 63 48 30 45 27 38 32 28 360 10 4 2 354 354 326 303 333 323 325 328 329 326 331 325 326 328 334 329 325 327 323 319 313 313 312 315
85 80 74 72 60 55 39 50 58 40 48 42 25 30 27 20 13 17 4 344 351 337 314 320 317 327 324 325 329 327 327 329 332 329 327 326 323 320 325 324 319 315 313
87 82 85 79 69 73 58 57 60 51 56 47 25 28 26 21 25 15 356 7 349 331 332 316 322 322 321 327 325 327 333 326 328 319 326 325 325 324 321 324 318 310 305
94 81 84 93 89 75 62 65 62 54 49 56 37 32 24 35 24 3 350 352 335 334 324 315 314 317 318 325 328 325 328 321 321 323 319 322 326 324 319 318 316 314 314
111 111 106 117 90 83 54 38 42 42 35 28 37 44 42 46 26 352 352 334 339 331 321 316 311 317 325 330 322 327 324 328 325 316 320 332 321 322 321 320 320 316 316
117 127 133 114 134 111 62 50 20 16 21 15 26 21 48 27 13 356 350 345 337 327 326 322 322 323 326 330 334 329 318 322 322 324 327 329 321 326 321 322 320 318 318
153 155 158 149 110 97 58 32 34 345 359 11 359 348 8 34 14 359 347 340 341 335 329 328 328 321 323 329 323 322 320 324 324 333 325 323 325 316 320 322 318 321 318
168 182 166 166 145 123 55 8 3 325 315 330 356 0 1 28 14 357 339 342 340 331 336 329 319 323 326 323 320 322 320 321 318 321 322 318 321 323 321 315 319 320 340
185 185 185 176 165 139 150 317 323 303 317 347 343 16 354 4 333 340 340 343 330 335 323 322 320 322 311 318 320 319 328 315 312 315 328 308 321 319 319 313 313 327 330
187 197 183 180 194 182 184 255 296 323 316 334 344 347 317 329 338 340 343 330 330 320 314 328 326 324 326 328 327 336 328 328 317 317 327 313 317 317 317 307 321 326 326
192 183 191 190 201 198 200 241 268 313 327 345 355 314 331 345 340 337 335 341 326 313 344 334 325 325 323 322 332 332 326 317 312 313 326 316 318 329 314 311 320 319 317